STARLINK-35308, 65848

Orbit data source: Space-Track

STARLINK-35308, 65848 is a payload satellite owned by SpaceX/Seattle (US) in LEO that was launched on Mon, 29 Sep 2025 UTC via an FALCON 9 launch vehicle from the Air Force Western Test Range (AFWTR). Payload-class satellites include a variety of spacecraft equipped with specific instruments for various scientific and technological missions. These include communications satellites like Starlink; space stations such as the ISS; scientific satellites like the Hubble; Earth observation satellites from companies like Planet Labs, Umbra, and HawkEye 360; GPS; miniature CubeSats for education and research; and military/defense satellites.

Loading next visibility...
Identifier
65848, 2025-221AB
Orbit
LEO
Country
Flag of USUS
Related business
Manufacturer
SpaceX/Seattle
Mission
Operational Commercial Communications
Bus & Motor
STARLINK V2MO, Unknown motor
Mass
575 kg wet, ~530 kg dry
Launch date (UTC)
2025-09-29 (2 months ago)
Launch vehicle
FALCON 9
Launch site
Air Force Western Test Range (AFWTR)
Object type
Payload
Rocket body
Debris
Shape & HBR
Box + 2 Pan, 17.7 m
Radar Cross Section
36.964 m²

Expand to show TLE details & history
Last TLE update: 23 hours ago

TLE from 23 hours ago
0 STARLINK-35308
1 65848U 25221AB  25340.21737108  .00054454  00000-0  18354-2 0  9991
2 65848  53.1583 162.4165 0001050 100.8804 259.2315 15.30232823 11772
Epoch: 2025-12-06T05:13Z
TLE epoch observation values (Epoch: 2025-12-06T05:13:00.861Z)
Latitude
-0.00001°
Longitude
8.91463°
Altitude
476.151 km
Speed
7.629 km/s
True Right ascension
10h 49m 39s
True Declination
0° 00' 00"
Sunlit
Object was in daylight at epoch
Visualization orbit readout
Latitude
Unknown
Longitude
Unknown
Altitude
Unknown
Speed
Unknown
Apparent Right ascension
Unknown
Apparent Declination
Unknown
Sunlit
N/A
Visualization observer readout
Local Sidereal Time
02:16:10
Azimuth
Unknown
Elevation
Unknown
Doppler factor
Unknown
Orbital elements
Apogee altitude
476.093 km
Perigee altitude
474.654 km
Semi-major axis
6,853.511 km
Eccentricity
0.00011
Inclination
53.1583°
RAAN
162.4165°
Arg. of periapsis
100.8804°
True anomaly
259.21968°
Mean anomaly
259.2315°
Eccentric anomaly
259.22559°
Mean motion
3.82537 °/min
Orbital period
94.11 mins
BSTAR
0.0018354
Loading maneuver chart data...
Computing Atmospheric mass density...
Loading historical data...
Loading historical data...
Loading historical data...
Loading historical data...
Loading historical data...
Loading historical data...
Loading historical data...

Documentation

Showing up to 5 results
|